星链-1390 (STARLINK-1390 )

导读 | 星芒AI

STARLINK-1390 是 SpaceX Starlink 项目中的一颗低轨通信卫星,属于第 1390 组 Starlink 卫星群的一部分。该卫星于 2023 年发射,旨在为全球用户提供高速互联网服务。它运行在约 550 公里的轨道高度,采用先进的推进系统和激光通信技术,以提高网络连接的稳定性和效率。Starlink 项目致力于构建一个覆盖全球的卫星互联网网络,尤其服务于偏远和网络基础设施薄弱的地区。

基本信息
目录编号:
45550
目录名称:
STARLINK-1390
国际标识:
2020-025V
轨道中心:
EARTH
卫星名称:
星链-1390
卫星全名:
星链-1390 (STARLINK-1390 )
卫星状态:
已陨落 最后检测时间 2025-03-21
发射日期:
2020-04-22 UTC
国别 :
美国 (US)
星等 :
--
轨道信息
数据来源 国际轨道数据
星历时间: 2025-03-21T12:57:41+0800
轨道信息已过期269天
半长轴: 6534.831km
偏心率: 0.0007779
轨道倾角: 53.023°
近地点辐角 338.146°
升交点赤经 201.731°
平近点角 90.141°
近地点: 151.612km
远地点: 161.78km
周期: 87.622分钟
每日圈数: 16.434301
详细信息
固有亮度:
5
最大亮度:
2.5
卫星平台:
Starlink V1.0
覆盖范围:
全球
运营商:
太空探索技术公司
运营商所在国:
美国
制造商(研发单位):
太空探索技术公司
制造商所在国:
美国
使用方式:
暂无
卫星简介
星链(Starlink)计划是由太空探索技术公司(SpaceX)提出的一个巨型低轨卫星互联网星座项目,计划在2019年至2024年间在太空搭建由约1.2万颗卫星组成的“星链”网络,其中1584颗将部署在地球上空550千米处的近地轨道,并从2020年开始工作。该卫星仍在工作。